Flag for Germany Weather past 2 weeks in Lippstadt, North Rhine-Westphalia, Germany

Now
34 °F

Passing clouds.


Feels Like: 23 °F
Forecast: 34 / 44 °F
Wind: 17 mph from West

Location: Paderborn / Lippstadt

Current Time: Mar 3, 2015 at 12:43:47 AM

Latest Report: Mar 3, 2015 at 12:20 AM


Visibility: N/A

Pressure: 29.92 "Hg

Humidity: 100%

Dew point: 34 °F

Location of LippstadtLocation

Historic Weather in Lippstadt — Graph

°F

Lippstadt temperature yesterday

Maximum temperature yesterday: 43 °F (at 12:20 AM)
Minimum temperature yesterday: 30 °F (at 9:50 PM)
Average temperature yesterday: 38 °F

Past Weeks' High & Low Weather Summary

 TemperatureHumidityPressure
High48 °F (Mar 1, 11:50 AM)100% (Feb 16, 4:20 AM)30.74 "Hg (Feb 16, 4:20 AM)
Low25 °F (Feb 17, 5:20 AM)42% (Feb 28, 4:20 PM)29.33 "Hg (Feb 21, 6:50 AM)
Average37 °F85%29.93 "Hg
* Reported Feb 15 11:20 PM — Mar 2 11:20 PM, Lippstadt, Weather by CustomWeather, © 2015

Note: Actual official high and low records may vary slightly from our data, if they occured in-between our weather recording intervals... More about our weather records

Advertising

Lippstadt weather history for previous 24 hours

 ConditionsComfort  
Time TempWeatherWind HumidityBarometerVisibility
11:20 PM
Mon, Mar 2
32 °FPassing clouds.15 mph100%29.89 "HgN/A
10:50 PM32 °FPartly cloudy.16 mph100%29.89 "HgN/A
10:20 PM30 °FSnow. Passing clouds.13 mph100%29.86 "Hg1 mi
9:50 PM30 °FThunderstorms. Partly cloudy.14 mph100%29.86 "Hg1 mi
9:20 PM36 °FPassing clouds.15 mph87%29.80 "HgN/A
8:50 PM34 °FPassing clouds.16 mph100%29.80 "HgN/A
8:20 PM34 °FPassing clouds.16 mph100%29.80 "HgN/A
7:50 PM34 °FPassing clouds.14 mph100%29.77 "HgN/A
7:20 PM34 °FLight rain. Passing clouds.14 mph100%29.77 "HgN/A
6:50 PM34 °FLight rain. Passing clouds.9 mph100%29.77 "Hg6 mi
6:20 PM32 °FRain. Passing clouds.16 mph100%29.71 "Hg6 mi
5:50 PM36 °FRain. Partly sunny.13 mph100%29.71 "HgN/A
5:20 PM41 °FRain showers. Broken clouds.15 mph57%29.68 "HgN/A
4:50 PM43 °FSunny.13 mph49%29.65 "Hg10 mi
4:20 PM43 °FPassing clouds.10 mph49%29.65 "HgN/A
3:50 PM43 °FPassing clouds.14 mph46%29.65 "HgN/A
3:20 PM43 °FPassing clouds.14 mph46%29.65 "HgN/A
2:50 PM43 °FPassing clouds.14 mph46%29.65 "HgN/A
2:20 PM43 °FPassing clouds.16 mph46%29.65 "HgN/A
1:50 PM43 °FScattered clouds.15 mph46%29.65 "HgN/A
1:20 PM43 °FScattered clouds.17 mph49%29.65 "HgN/A
12:50 PM41 °FScattered clouds.14 mph49%29.65 "HgN/A
12:20 PM43 °FScattered clouds.14 mph53%29.62 "HgN/A
11:50 AM41 °FScattered clouds.14 mph53%29.62 "HgN/A
11:20 AM41 °FScattered clouds.15 mph61%29.62 "HgN/A
10:50 AM39 °FScattered clouds.17 mph65%29.62 "HgN/A
10:20 AM39 °FScattered clouds.17 mph70%29.59 "HgN/A
9:50 AM37 °FScattered clouds.13 mph75%29.59 "HgN/A
9:20 AM37 °FScattered clouds.13 mph81%29.59 "HgN/A
8:50 AM37 °FScattered clouds.14 mph75%29.56 "HgN/A
8:20 AM37 °FScattered clouds.13 mph75%29.56 "HgN/A
7:50 AM37 °FScattered clouds.12 mph81%29.56 "HgN/A
7:20 AM36 °FScattered clouds.10 mph87%29.53 "HgN/A
6:50 AM37 °FPassing clouds.18 mph75%29.53 "HgN/A
6:20 AM37 °FPassing clouds.15 mph81%29.50 "HgN/A
5:50 AM39 °FPassing clouds.14 mph75%29.50 "HgN/A
5:20 AM37 °FPassing clouds.13 mph87%29.50 "HgN/A
4:50 AM39 °FPassing clouds.14 mph87%29.47 "HgN/A
4:20 AM39 °FPassing clouds.12 mph100%29.47 "HgN/A
3:50 AM39 °FPassing clouds.12 mph100%29.45 "HgN/A
3:20 AM37 °FPartly cloudy.12 mph100%29.45 "HgN/A
2:56 AM36 °FLight rain. Passing clouds.13 mph100%29.45 "HgN/A
2:50 AM36 °FThunderstorms. Passing clouds.18 mph93%29.45 "Hg4 mi
2:20 AM43 °FThundershowers. Partly cloudy.22 mph93%29.42 "HgN/A
1:50 AM43 °FLight rain. Passing clouds.20 mph81%29.42 "HgN/A
1:20 AM43 °FClear.17 mph81%29.42 "Hg10 mi
12:50 AM43 °FClear.13 mph81%29.45 "Hg10 mi
12:20 AM43 °FClear.10 mph87%29.47 "Hg10 mi
Weather by CustomWeather, © 2015

See weather overviewHow to use our weather pages